EZY4CH EGPH-EKCH

Flight info

Callsign EZY4CH
Flight time N/A
Altitude 39000
Route TLA Y96 OTBUN DCT SURAT DCT PETIL DCT TESPI
Aircraft A20N/M-SDE2E3FGHIRWXY/LB1

Departure

Time N/A
Airport Edinburgh Airport (EGPH)

Arrival

Time 2026-04-25 12:19
Airport Copenhagen Kastrup Airport (EKCH)
Time Latitude Longitude Altitude Speed Heading
2026-04-25 11:10 55.61086 0.29975 37205 ft 438 kts 75°
2026-04-25 11:11 55.62230 0.40529 37207 ft 438 kts 75°
2026-04-25 11:11 55.63366 0.51074 37207 ft 438 kts 75°
2026-04-25 11:12 55.64267 0.59518 37203 ft 438 kts 75°
2026-04-25 11:12 55.64380 0.60581 37203 ft 438 kts 75°
2026-04-25 11:13 55.65499 0.71164 37198 ft 439 kts 76°
2026-04-25 11:13 55.66620 0.81853 37202 ft 440 kts 76°
2026-04-25 11:14 55.67722 0.92460 37198 ft 440 kts 75°
2026-04-25 11:14 55.68815 1.03068 37197 ft 440 kts 76°
2026-04-25 11:15 55.69897 1.13664 37195 ft 440 kts 75°
2026-04-25 11:15 55.70972 1.24287 37195 ft 439 kts 75°
2026-04-25 11:16 55.72567 1.40238 37193 ft 439 kts 75°
2026-04-25 11:16 55.73624 1.50929 37193 ft 440 kts 75°
2026-04-25 11:17 55.74665 1.61555 37195 ft 440 kts 75°
2026-04-25 11:17 55.75697 1.72188 37191 ft 440 kts 76°
2026-04-25 11:18 55.76728 1.82910 37188 ft 441 kts 76°
2026-04-25 11:18 55.77742 1.93567 37183 ft 441 kts 76°
2026-04-25 11:19 55.78758 2.04320 37178 ft 443 kts 76°
2026-04-25 11:19 55.79760 2.15057 37175 ft 443 kts 75°
2026-04-25 11:20 55.80753 2.25807 37177 ft 442 kts 75°
2026-04-25 11:20 55.81732 2.36489 37175 ft 442 kts 75°
2026-04-25 11:21 55.82710 2.47286 37172 ft 442 kts 75°
2026-04-25 11:21 55.83674 2.58029 37171 ft 441 kts 75°
2026-04-25 11:22 55.84631 2.68807 37165 ft 442 kts 76°
2026-04-25 11:22 55.85580 2.79599 37162 ft 442 kts 76°
2026-04-25 11:23 55.86521 2.90412 37161 ft 443 kts 76°
2026-04-25 11:23 55.87450 3.01218 37162 ft 444 kts 76°
2026-04-25 11:24 55.88373 3.12062 37158 ft 443 kts 75°
2026-04-25 11:24 55.89288 3.22891 37156 ft 443 kts 76°
2026-04-25 11:25 55.90190 3.33719 37152 ft 443 kts 75°
2026-04-25 11:25 55.91080 3.44534 37149 ft 444 kts 75°
2026-04-25 11:26 55.91658 3.55508 37149 ft 449 kts 81°
2026-04-25 11:26 55.91888 3.66622 37146 ft 450 kts 83°
2026-04-25 11:27 55.92096 3.77733 37145 ft 450 kts 82°
2026-04-25 11:27 55.92270 3.87017 37144 ft 451 kts 82°
2026-04-25 11:28 55.92506 4.00037 37137 ft 452 kts 82°
2026-04-25 11:28 55.92696 4.11156 37134 ft 452 kts 82°
2026-04-25 11:29 55.92879 4.22376 37132 ft 452 kts 82°
2026-04-25 11:29 55.93051 4.33489 37129 ft 451 kts 82°
2026-04-25 11:30 55.93214 4.44681 37119 ft 452 kts 82°
2026-04-25 11:30 55.93367 4.55842 37119 ft 454 kts 82°
2026-04-25 11:31 55.93512 4.67139 37119 ft 455 kts 83°
2026-04-25 11:31 55.93645 4.78403 37114 ft 456 kts 82°
2026-04-25 11:32 55.93768 4.89669 37110 ft 456 kts 82°
2026-04-25 11:32 55.93879 5.00927 37103 ft 456 kts 82°
2026-04-25 11:33 55.94033 5.12170 37099 ft 455 kts 82°
2026-04-25 11:33 55.94192 5.23409 37094 ft 455 kts 82°
2026-04-25 11:34 55.94339 5.34647 37097 ft 457 kts 82°
2026-04-25 11:34 55.94472 5.45941 37094 ft 457 kts 82°
2026-04-25 11:35 55.94595 5.57155 37089 ft 456 kts 82°
2026-04-25 11:35 55.94707 5.68498 37086 ft 456 kts 83°
2026-04-25 11:36 55.94811 5.79765 37086 ft 455 kts 83°
2026-04-25 11:36 55.94900 5.90998 37079 ft 454 kts 83°
2026-04-25 11:37 55.94980 6.02200 37079 ft 453 kts 82°
2026-04-25 11:37 55.95052 6.13406 37079 ft 452 kts 82°
2026-04-25 11:38 55.95112 6.24591 37068 ft 451 kts 82°
2026-04-25 11:38 55.95164 6.35699 37062 ft 450 kts 82°
2026-04-25 11:39 55.95206 6.46868 37058 ft 451 kts 82°
2026-04-25 11:39 55.95233 6.57969 37045 ft 451 kts 82°
2026-04-25 11:40 55.95256 6.69200 37046 ft 453 kts 83°
2026-04-25 11:40 55.95267 6.80412 37027 ft 454 kts 83°
2026-04-25 11:41 55.95266 6.91632 37019 ft 455 kts 83°
2026-04-25 11:41 55.95258 7.02878 37048 ft 457 kts 83°
2026-04-25 11:42 55.95237 7.14157 37016 ft 456 kts 83°
2026-04-25 11:42 55.95204 7.25483 36992 ft 458 kts 83°
2026-04-25 11:43 55.95163 7.36856 37016 ft 460 kts 83°
2026-04-25 11:43 55.95116 7.48257 37014 ft 463 kts 83°
2026-04-25 11:44 55.95049 7.59717 37001 ft 465 kts 83°
2026-04-25 11:44 55.94979 7.71211 36998 ft 468 kts 84°
2026-04-25 11:45 55.94890 7.82870 36983 ft 470 kts 84°
2026-04-25 11:45 55.94775 7.96509 36994 ft 471 kts 84°
2026-04-25 11:46 55.94685 8.06148 36982 ft 472 kts 84°
2026-04-25 11:46 55.94564 8.17835 36966 ft 472 kts 84°
2026-04-25 11:47 55.94435 8.29536 36972 ft 473 kts 84°
2026-04-25 11:47 55.94293 8.41187 36951 ft 472 kts 84°
2026-04-25 11:48 55.94141 8.52946 36938 ft 474 kts 84°
2026-04-25 11:48 55.93978 8.64674 36940 ft 477 kts 84°
2026-04-25 11:49 55.93800 8.76480 36936 ft 477 kts 84°
2026-04-25 11:49 55.93613 8.88219 36925 ft 478 kts 85°
2026-04-25 11:50 55.93413 9.00040 36915 ft 477 kts 84°
2026-04-25 11:50 55.93207 9.11901 36922 ft 480 kts 85°
2026-04-25 11:51 55.93095 9.17786 36701 ft 482 kts 85°
2026-04-25 11:51 55.92983 9.23736 36031 ft 489 kts 84°
2026-04-25 11:51 55.92863 9.29769 35487 ft 492 kts 84°
2026-04-25 11:51 55.92737 9.35858 34866 ft 490 kts 84°
2026-04-25 11:52 55.92616 9.41880 33752 ft 493 kts 84°
2026-04-25 11:52 55.92491 9.47983 32835 ft 487 kts 85°
2026-04-25 11:52 55.92365 9.53872 32126 ft 479 kts 84°
2026-04-25 11:52 55.92236 9.59753 31399 ft 478 kts 85°
2026-04-25 11:53 55.92108 9.65692 30658 ft 482 kts 86°
2026-04-25 11:53 55.91974 9.71681 29924 ft 484 kts 86°
2026-04-25 11:53 55.91834 9.77638 29350 ft 483 kts 86°
2026-04-25 11:53 55.91689 9.83566 28816 ft 480 kts 87°
2026-04-25 11:54 55.91545 9.89426 28295 ft 478 kts 86°
2026-04-25 11:54 55.91394 9.95315 27774 ft 475 kts 87°
2026-04-25 11:54 55.91098 10.06944 26774 ft 469 kts 87°
2026-04-25 11:55 55.90949 10.12691 26261 ft 467 kts 87°
2026-04-25 11:55 55.90797 10.18425 25748 ft 465 kts 87°
2026-04-25 11:55 55.90641 10.24173 25262 ft 462 kts 87°
2026-04-25 11:55 55.90431 10.31703 24608 ft 459 kts 87°
2026-04-25 11:56 55.90326 10.35485 24238 ft 459 kts 87°
2026-04-25 11:56 55.90168 10.41112 23707 ft 458 kts 88°
2026-04-25 11:56 55.90001 10.46786 23204 ft 457 kts 87°
2026-04-25 11:56 55.89757 10.52397 22721 ft 457 kts 92°
2026-04-25 11:57 55.89276 10.57965 22251 ft 457 kts 97°
2026-04-25 11:57 55.88632 10.63407 21812 ft 455 kts 99°
2026-04-25 11:57 55.87938 10.68942 21344 ft 452 kts 100°
2026-04-25 11:57 55.87258 10.74326 20876 ft 449 kts 99°
2026-04-25 11:58 55.86588 10.79720 20431 ft 446 kts 100°
2026-04-25 11:58 55.85922 10.85104 19980 ft 443 kts 99°
2026-04-25 11:58 55.85268 10.90377 19538 ft 440 kts 100°
2026-04-25 11:58 55.84579 10.95628 19090 ft 437 kts 102°
2026-04-25 11:59 55.83827 11.00830 18675 ft 433 kts 103°
2026-04-25 11:59 55.83058 11.06005 18250 ft 429 kts 102°
2026-04-25 11:59 55.82301 11.11066 17912 ft 423 kts 103°
2026-04-25 12:00 55.80834 11.20904 17489 ft 404 kts 102°
2026-04-25 12:00 55.80134 11.25611 17059 ft 392 kts 102°
2026-04-25 12:00 55.78772 11.34720 15933 ft 376 kts 103°
2026-04-25 12:01 55.78107 11.39152 15558 ft 377 kts 103°
2026-04-25 12:01 55.77522 11.43662 15418 ft 374 kts 96°
2026-04-25 12:01 55.77231 11.48264 15185 ft 371 kts 89°
2026-04-25 12:01 55.77114 11.54284 14768 ft 366 kts 85°
2026-04-25 12:02 55.77029 11.61712 14206 ft 361 kts 86°
2026-04-25 12:02 55.76957 11.66166 13807 ft 361 kts 88°
2026-04-25 12:02 55.76870 11.70636 13450 ft 357 kts 88°
2026-04-25 12:03 55.76849 11.75015 13018 ft 355 kts 82°
2026-04-25 12:03 55.77145 11.79293 12750 ft 344 kts 73°
2026-04-25 12:03 55.77629 11.83431 12769 ft 344 kts 71°
2026-04-25 12:03 55.78167 11.87588 12793 ft 346 kts 71°
2026-04-25 12:04 55.78701 11.91749 12818 ft 347 kts 71°
2026-04-25 12:04 55.79223 11.95900 12722 ft 342 kts 71°
2026-04-25 12:04 55.79724 11.99968 12341 ft 341 kts 71°
2026-04-25 12:04 55.80224 12.04066 11924 ft 340 kts 71°
2026-04-25 12:05 55.80672 12.08164 11527 ft 341 kts 79°
2026-04-25 12:05 55.80608 12.12425 11150 ft 344 kts 92°
2026-04-25 12:05 55.80322 12.16620 10788 ft 342 kts 95°
2026-04-25 12:05 55.79895 12.22171 10284 ft 339 kts 95°
2026-04-25 12:06 55.79679 12.24901 10049 ft 337 kts 95°
2026-04-25 12:06 55.79351 12.29008 9689 ft 335 kts 95°
2026-04-25 12:06 55.79025 12.33083 9334 ft 332 kts 95°
2026-04-25 12:06 55.78697 12.37119 8966 ft 330 kts 95°
2026-04-25 12:07 55.78366 12.41101 8605 ft 327 kts 95°
2026-04-25 12:07 55.78030 12.45072 8253 ft 324 kts 95°
2026-04-25 12:07 55.77703 12.48982 7899 ft 321 kts 95°
2026-04-25 12:07 55.77270 12.54147 7411 ft 318 kts 95°
2026-04-25 12:08 55.77051 12.56745 7177 ft 316 kts 95°
2026-04-25 12:08 55.76727 12.60591 6827 ft 313 kts 95°
2026-04-25 12:08 55.76152 12.64247 6433 ft 315 kts 115°
2026-04-25 12:08 55.75030 12.67615 6053 ft 312 kts 124°
2026-04-25 12:09 55.73844 12.70749 5696 ft 310 kts 125°
2026-04-25 12:09 55.72616 12.73917 5312 ft 308 kts 125°
2026-04-25 12:09 55.71410 12.77003 4945 ft 306 kts 126°
2026-04-25 12:09 55.69813 12.81095 4470 ft 303 kts 126°
2026-04-25 12:10 55.69016 12.83140 4229 ft 302 kts 126°
2026-04-25 12:10 55.67834 12.86167 3966 ft 298 kts 126°
2026-04-25 12:10 55.66651 12.89194 3941 ft 301 kts 125°
2026-04-25 12:10 55.65459 12.92238 3937 ft 301 kts 125°
2026-04-25 12:11 55.64297 12.95209 3932 ft 292 kts 125°
2026-04-25 12:11 55.63160 12.98128 3754 ft 283 kts 125°
2026-04-25 12:11 55.62062 13.00931 3535 ft 271 kts 126°
2026-04-25 12:11 55.60315 13.03821 3155 ft 248 kts 162°
2026-04-25 12:12 55.59263 13.04479 3016 ft 235 kts 171°
2026-04-25 12:12 55.57723 13.05166 2961 ft 230 kts 175°
2026-04-25 12:12 55.56157 13.05775 2955 ft 229 kts 179°
2026-04-25 12:12 55.54655 13.05602 2935 ft 208 kts 214°
2026-04-25 12:13 55.53611 13.04115 2945 ft 186 kts 250°
2026-04-25 12:13 55.53285 13.02031 2970 ft 175 kts 271°
2026-04-25 12:13 55.53232 12.99905 2962 ft 173 kts 275°
2026-04-25 12:13 55.53228 12.97780 2950 ft 173 kts 275°
2026-04-25 12:14 55.53236 12.95648 2955 ft 174 kts 275°
2026-04-25 12:14 55.53243 12.93536 2958 ft 171 kts 275°
2026-04-25 12:14 55.53245 12.91551 3035 ft 155 kts 275°
2026-04-25 12:14 55.53338 12.89665 3006 ft 151 kts 287°
2026-04-25 12:15 55.53699 12.87948 2833 ft 149 kts 296°
2026-04-25 12:15 55.54177 12.86350 2634 ft 148 kts 300°
2026-04-25 12:15 55.54709 12.84827 2437 ft 142 kts 302°
2026-04-25 12:15 55.55411 12.82907 2194 ft 137 kts 302°
2026-04-25 12:16 55.55751 12.81978 2070 ft 136 kts 302°
2026-04-25 12:16 55.56249 12.80625 1891 ft 127 kts 302°
2026-04-25 12:16 55.56723 12.79339 1717 ft 126 kts 302°
2026-04-25 12:16 55.57201 12.78037 1549 ft 127 kts 301°
2026-04-25 12:17 55.57667 12.76773 1358 ft 115 kts 302°
2026-04-25 12:17 55.58074 12.75665 1190 ft 105 kts 302°
2026-04-25 12:17 55.58472 12.74581 1067 ft 104 kts 301°
2026-04-25 12:17 55.58868 12.73490 963 ft 108 kts 302°
2026-04-25 12:18 55.59295 12.72352 815 ft 111 kts 302°
2026-04-25 12:18 55.59724 12.71212 619 ft 111 kts 302°
2026-04-25 12:18 55.60149 12.70054 481 ft 112 kts 302°
2026-04-25 12:18 55.60581 12.68886 335 ft 113 kts 301°
2026-04-25 12:19 55.61407 12.66631 31 ft 105 kts 302°
2026-04-25 12:19 55.61744 12.65727 19 ft 64 kts 303°
2026-04-25 12:19 55.61908 12.65271 20 ft 39 kts 304°
2026-04-25 12:20 55.62034 12.64938 21 ft 31 kts 303°
2026-04-25 12:20 55.62125 12.64720 21 ft 11 kts 339°
2026-04-25 12:20 55.62191 12.64750 21 ft 5 kts 33°
2026-04-25 12:20 55.62217 12.64781 21 ft 3 kts 33°
2026-04-25 12:21 55.62227 12.64792 21 ft 2 kts 33°
2026-04-25 12:21 55.62246 12.64816 21 ft 4 kts 38°
2026-04-25 12:21 55.62249 12.64896 21 ft 9 kts 114°
2026-04-25 12:21 55.62194 12.65058 20 ft 6 kts 122°
2026-04-25 12:22 55.62180 12.65114 20 ft 9 kts 92°
2026-04-25 12:22 55.62214 12.65185 20 ft 6 kts 20°
2026-04-25 12:22 55.62282 12.65197 20 ft 10 kts
2026-04-25 12:22 55.62380 12.65201 19 ft 15 kts 359°
2026-04-25 12:23 55.62437 12.65264 19 ft 12 kts 83°
2026-04-25 12:23 55.62441 12.65446 18 ft 13 kts 90°
2026-04-25 12:23 55.62471 12.65535 18 ft 9 kts 27°
2026-04-25 12:23 55.62520 12.65575 17 ft 0 kts 25°